KD2VWU Weather Reports


time (UTC)temp
F
wind
direction
speed
knots
gust
knots
rain 1hr
in
rain 24hr
in
rain mn
in
humidity
%
barometer
mb
20260504141015 59 213 6.1 7.0 0.00 0.00 0.00 45 1009.8
20260504140511 59 82 0.0 0.9 0.00 0.00 0.00 51 1009.8
20260504130436 55 245 0.9 1.7 0.00 0.00 0.00 51 1010.2
20260504110317 46 243 1.7 1.7 0.00 0.00 0.00 70 1010.4
20260504100235 44 229 1.7 1.7 0.00 0.00 0.00 72 1010.2
20260504081628 40 87 0.0 0.0 0.00 0.00 0.00 86 1009.5
20260504081124 41 86 0.0 0.0 0.00 0.00 0.00 85 1009.6
20260504080621 41 170 0.0 0.0 0.00 0.00 0.00 84 1009.5
20260504080117 40 155 0.0 0.0 0.00 0.00 0.00 86 1009.3
20260504050433 42 83 0.0 0.0 0.00 0.00 0.00 74 1009.1
20260504045931 42 81 0.0 0.0 0.00 0.00 0.00 73 1009.1
20260504045426 42 90 0.0 0.0 0.00 0.00 0.00 71 1009.1
20260504044922 43 77 0.0 0.0 0.00 0.00 0.00 73 1009.1
20260504044420 43 97 0.0 0.0 0.00 0.00 0.00 72 1009.0
20260504043917 43 94 0.0 0.0 0.00 0.00 0.00 71 1009.0
20260504043414 44 88 0.0 0.9 0.00 0.00 0.00 68 1008.9
20260504042912 44 72 0.0 0.0 0.00 0.00 0.00 68 1008.9
20260504042408 44 89 0.0 0.0 0.00 0.00 0.00 66 1009.1
20260504041904 44 90 0.0 0.0 0.00 0.00 0.00 66 1009.0
20260504041401 44 104 0.9 0.9 0.00 0.00 0.00 69 1009.0
20260504040856 44 124 0.9 0.9 0.00 0.00 0.00 68 1009.0
20260504040354 44 90 0.0 0.0 0.00 0.00 0.00 70 1008.9
20260504035850 44 97 0.0 0.0 0.00 0.00 0.00 69 1008.9
20260504035348 44 105 0.0 0.9 0.00 0.00 0.00 72 1008.8
20260504034844 44 82 0.0 0.0 0.00 0.00 0.00 70 1008.9
20260504034342 45 122 0.9 0.9 0.00 0.00 0.00 68 1008.8
20260504033839 46 90 0.0 0.0 0.00 0.00 0.00 66 1008.9
20260504033337 46 83 0.0 0.0 0.00 0.00 0.00 60 1009.0
20260504032833 45 82 0.0 0.0 0.00 0.00 0.00 62 1008.9
20260504032330 46 82 0.0 0.0 0.00 0.00 0.00 66 1008.9
20260504031827 46 77 0.0 0.0 0.00 0.00 0.00 63 1009.0
20260504031319 46 104 0.0 0.9 0.00 0.00 0.00 63 1008.9
20260504030815 46 126 0.9 0.9 0.00 0.00 0.00 60 1009.0
20260504030313 47 85 0.0 0.0 0.00 0.00 0.00 60 1008.9
20260504025808 47 90 0.0 0.0 0.00 0.00 0.00 60 1009.0
20260504025306 48 105 0.0 0.9 0.00 0.00 0.00 57 1008.9
20260504024802 48 143 0.9 0.9 0.00 0.00 0.00 54 1008.7
20260504024259 49 123 0.9 0.9 0.00 0.00 0.00 52 1008.9
20260504023755 49 99 0.0 0.0 0.00 0.00 0.00 51 1008.9
20260504023252 49 99 0.0 0.0 0.00 0.00 0.00 52 1008.8
20260504022748 48 125 0.0 0.9 0.00 0.00 0.00 53 1008.9
20260504022244 48 93 0.0 0.0 0.00 0.00 0.00 52 1009.2
20260504021741 49 131 0.9 0.9 0.00 0.00 0.00 52 1009.0
20260504021239 50 88 0.0 0.0 0.00 0.00 0.00 51 1008.9
20260504020735 50 160 0.0 0.0 0.00 0.00 0.00 49 1008.8
20260504020232 50 138 0.0 0.0 0.00 0.00 0.00 48 1008.9
20260504015728 50 119 0.0 0.0 0.00 0.00 0.00 49 1008.9
20260504015225 50 117 0.0 0.0 0.00 0.00 0.00 48 1008.7
20260504014720 50 129 0.0 0.0 0.00 0.00 0.00 49 1008.9
20260504014217 50 123 0.0 0.0 0.00 0.00 0.00 49 1008.7
20260504013715 50 114 0.0 0.0 0.00 0.00 0.00 49 1009.0
20260504013213 50 30 0.0 0.0 0.00 0.00 0.00 49 1008.9
20260504012709 50 6 0.0 0.9 0.00 0.00 0.00 48 1008.9
20260504012207 50 304 0.0 0.9 0.00 0.00 0.00 47 1008.8
20260504011704 50 21 0.0 0.0 0.00 0.00 0.00 48 1008.7
20260504011200 50 357 0.0 0.9 0.00 0.00 0.00 50 1008.7
20260504010656 50 247 0.9 0.9 0.00 0.00 0.00 47 1008.5
20260504010152 50 186 0.9 0.9 0.00 0.00 0.00 45 1008.6
20260504005649 50 104 0.0 0.0 0.00 0.00 0.00 45 1008.4
20260504005145 50 112 0.0 0.0 0.00 0.00 0.00 45 1008.2
20260504004644 50 96 0.0 0.0 0.00 0.00 0.00 45 1008.4
20260504004140 51 89 0.0 0.0 0.00 0.00 0.00 46 1008.3
20260504003637 51 122 0.9 0.9 0.00 0.00 0.00 46 1008.1
20260504003133 51 76 0.0 0.0 0.00 0.00 0.00 44 1008.0
20260504002630 51 74 0.0 0.0 0.00 0.00 0.00 45 1008.0
20260504002128 52 74 0.0 0.0 0.00 0.00 0.00 44 1007.7
20260504001626 52 65 0.0 0.0 0.00 0.00 0.00 44 1007.6
20260504001121 53 73 0.0 0.0 0.00 0.00 0.00 44 1007.8
20260504000619 53 48 0.0 0.0 0.00 0.00 0.00 44 1007.7
20260504000116 53 131 0.0 0.9 0.00 0.00 0.00 44 1007.6
20260503235614 54 316 0.9 0.9 0.00 0.00 0.00 42 1007.6
20260503235111 54 343 0.9 0.9 0.00 0.00 0.00 43 1007.5
20260503234609 54 14 0.9 0.9 0.00 0.00 0.00 43 1007.5
20260503234106 54 25 0.0 0.9 0.00 0.00 0.00 42 1007.4
20260503233603 55 348 1.7 1.7 0.00 0.00 0.00 41 1007.4
20260503233059 55 330 2.6 2.6 0.00 0.00 0.00 41 1007.4
20260503232556 55 5 1.7 2.6 0.00 0.00 0.00 41 1007.1
20260503232053 55 309 0.9 0.9 0.00 0.00 0.00 40 1007.2
20260503231551 55 257 2.6 2.6 0.00 0.00 0.00 37 1007.2
20260503231047 55 28 0.9 1.7 0.00 0.00 0.00 40 1007.2
20260503230544 55 349 0.9 0.9 0.00 0.00 0.00 37 1007.0
20260503230042 55 356 1.7 1.7 0.00 0.00 0.00 41 1007.1
20260503225538 56 336 0.9 1.7 0.00 0.00 0.00 38 1006.9
20260503225033 56 328 1.7 2.6 0.00 0.00 0.00 35 1007.1
20260503224531 56 305 2.6 4.3 0.00 0.00 0.00 36 1006.7
20260503224029 56 287 1.7 1.7 0.00 0.00 0.00 35 1006.8
20260503223527 56 358 2.6 2.6 0.00 0.00 0.00 36 1006.9
20260503223022 56 342 1.7 1.7 0.00 0.00 0.00 35 1006.4
20260503222520 56 263 1.7 1.7 0.00 0.00 0.00 35 1006.6
20260503222018 57 356 1.7 1.7 0.00 0.00 0.00 34 1006.5
20260503221516 56 310 1.7 1.7 0.00 0.00 0.00 35 1006.6
20260503221013 57 244 2.6 4.3 0.00 0.00 0.00 35 1006.8
20260503220509 57 288 1.7 1.7 0.00 0.00 0.00 35 1006.7
20260503220006 57 317 2.6 2.6 0.00 0.00 0.00 35 1006.7
20260503215503 57 318 1.7 1.7 0.00 0.00 0.00 34 1006.8
20260503215000 57 301 2.6 2.6 0.00 0.00 0.00 35 1006.8
20260503214458 57 251 2.6 2.6 0.00 0.00 0.00 34 1006.7
20260503213955 57 69 2.6 4.3 0.00 0.00 0.00 35 1006.5
20260503213453 56 286 3.5 5.2 0.00 0.00 0.00 34 1006.7
20260503212949 56 13 3.5 4.3 0.00 0.00 0.00 35 1006.6
20260503212447 57 3 2.6 4.3 0.00 0.00 0.00 36 1006.7
20260503211944 57 327 2.6 2.6 0.00 0.00 0.00 37 1006.5
20260503211441 57 249 1.7 1.7 0.00 0.00 0.00 36 1006.6
20260503210937 56 349 1.7 1.7 0.00 0.00 0.00 36 1006.7
20260503210433 57 275 3.5 4.3 0.00 0.00 0.00 37 1006.7
20260503205928 56 33 0.9 0.9 0.00 0.00 0.00 37 1006.8
20260503205426 56 261 2.6 2.6 0.00 0.00 0.00 39 1006.7
20260503204922 56 296 1.7 1.7 0.00 0.00 0.00 37 1006.5
20260503204419 56 358 1.7 2.6 0.00 0.00 0.00 36 1006.6
20260503203916 57 306 4.3 5.2 0.00 0.00 0.00 35 1006.8
20260503203414 57 37 2.6 4.3 0.00 0.00 0.00 37 1006.7
20260503202910 57 134 2.6 4.3 0.00 0.00 0.00 37 1006.6
20260503202409 57 284 2.6 2.6 0.00 0.00 0.00 37 1006.6
20260503201907 56 87 1.7 2.6 0.00 0.00 0.00 35 1006.5
20260503201403 57 332 3.5 5.2 0.00 0.00 0.00 38 1006.5
20260503200901 56 243 2.6 4.3 0.00 0.00 0.00 35 1006.9
20260503200356 57 343 2.6 4.3 0.00 0.00 0.00 37 1006.8
20260503195854 57 296 3.5 4.3 0.00 0.00 0.00 40 1006.7
20260503195350 55 343 2.6 2.6 0.00 0.00 0.00 38 1007.0
20260503194848 57 290 4.3 7.0 0.00 0.00 0.00 39 1006.9
20260503194343 57 8 3.5 4.3 0.00 0.00 0.00 39 1006.8
20260503193840 57 350 2.6 4.3 0.00 0.00 0.00 37 1007.2
20260503193336 57 48 3.5 4.3 0.00 0.00 0.00 39 1007.1
20260503192832 57 286 3.5 5.2 0.00 0.00 0.00 38 1007.0
20260503192327 57 349 2.6 2.6 0.00 0.00 0.00 38 1007.2
20260503191824 56 329 3.5 4.3 0.00 0.00 0.00 45 1007.4
20260503191321 57 330 2.6 2.6 0.00 0.00 0.00 38 1007.2
20260503190818 56 325 2.6 2.6 0.00 0.00 0.00 39 1007.1
20260503190315 57 282 2.6 4.3 0.00 0.00 0.00 44 1007.1
20260503185812 57 339 1.7 2.6 0.00 0.00 0.00 43 1007.0
20260503185307 55 57 3.5 4.3 0.00 0.00 0.00 42 1007.3
20260503184802 55 339 4.3 6.1 0.00 0.00 0.00 44 1007.3
20260503184259 55 327 4.3 6.1 0.00 0.00 0.00 41 1007.4
20260503183754 55 318 3.5 4.3 0.00 0.00 0.00 44 1007.3
20260503183252 55 347 3.5 4.3 0.00 0.00 0.00 46 1007.4
20260503182749 53 357 4.3 5.2 0.00 0.00 0.00 46 1007.4
20260503182248 55 249 4.3 6.1 0.00 0.00 0.00 47 1007.3
20260503181745 54 297 3.5 4.3 0.00 0.00 0.00 46 1007.5
20260503181242 54 277 2.6 2.6 0.00 0.00 0.00 45 1007.6
20260503180738 53 99 3.5 4.3 0.00 0.00 0.00 45 1007.6
20260503180236 53 250 4.3 6.1 0.00 0.00 0.00 43 1007.6
20260503175732 53 293 1.7 2.6 0.00 0.00 0.00 48 1007.6
20260503175231 53 301 4.3 5.2 0.00 0.00 0.00 48 1007.7
20260503174726 51 17 3.5 5.2 0.00 0.00 0.00 49 1007.6
20260503174224 51 338 2.6 2.6 0.00 0.00 0.00 48 1007.6
20260503173719 52 335 1.7 1.7 0.00 0.00 0.00 47 1007.6
20260503173215 53 356 3.5 5.2 0.00 0.00 0.00 46 1007.7
20260503172712 53 265 2.6 2.6 0.00 0.00 0.00 44 1007.9
20260503172209 51 309 2.6 2.6 0.00 0.00 0.00 47 1007.8
20260503171706 51 255 2.6 2.6 0.00 0.00 0.00 45 1007.9
20260503171203 51 354 2.6 2.6 0.00 0.00 0.00 49 1007.7
20260503170700 51 333 2.6 2.6 0.00 0.00 0.00 46 1007.6
20260503170157 53 243 1.7 2.6 0.00 0.00 0.00 45 1007.5
20260503160118 51 27 3.5 5.2 0.00 0.00 0.00 46 1007.7
20260503150548 47 355 2.6 5.2 0.00 0.00 0.00 55 1008.1